Date String (YYYY-MM-DD hh:mm:ss) UTC,Instrument flags,Ambient pressure (hPa),Sample flow (lpm),Bypass flow (lpm),Sample temperature (°C),Ambient temperature (°C),ASC tube jacket temperature (°C),LED temperature (°C),Box temperature (°C),Sample RH (%),Span deviation,Mass concentration (μg/m³),Mass concentration (μg/m³),Mass concentration (μg/m³)
DateTimeUTC,F1_M11,P_M11,Q1_M11,Q2_M11,T1_M11,T2_M11,T3_M11,T4_M11,T5_M11,U1_M11,ZSPAN_M11,X0_M11,X2_M11,X1_M11
2023-04-11 08:00:00,,0834.5,5.00,0.00,27.6,25.8,00.0,36.0,29.1,10.0,0000.0,0010.17,0003.48,0001.81
2023-04-11 08:01:00,,0834.5,5.00,0.00,27.6,25.8,00.0,36.0,29.1,09.9,0000.0,0010.05,0003.50,0001.82
2023-04-11 08:02:00,,0834.5,4.99,0.00,27.6,25.8,00.0,36.0,29.1,09.8,0000.0,0009.40,0003.48,0001.80
2023-04-11 08:03:00,,0834.5,4.99,0.00,27.6,25.8,00.0,36.0,29.1,09.9,0000.0,0009.50,0003.49,0001.81
2023-04-11 08:04:00,,0834.4,5.00,0.00,27.6,25.7,00.0,36.0,29.1,09.9,0000.0,0010.24,0003.48,0001.80
2023-04-11 08:05:00,,0834.4,5.01,0.00,27.6,25.7,00.0,36.0,29.0,09.9,0000.0,0009.89,0003.40,0001.76
2023-04-11 08:06:00,,0834.4,5.00,0.00,27.5,25.7,00.0,36.0,29.1,09.9,0000.0,0009.54,0003.35,0001.76
2023-04-11 08:07:00,,0834.4,5.00,0.00,27.5,25.7,00.0,36.0,29.1,09.8,0000.0,0009.44,0003.34,0001.77
2023-04-11 08:08:00,,0834.4,5.01,0.00,27.5,25.7,00.0,36.0,29.1,09.8,0000.0,0009.44,0003.39,0001.79
2023-04-11 08:09:00,,0834.4,5.01,0.00,27.5,25.7,00.0,36.0,29.1,09.7,0000.0,0009.73,0003.40,0001.79
2023-04-11 08:10:00,,0834.3,5.00,0.00,27.5,25.7,00.0,35.9,29.0,09.6,0000.0,0010.74,0003.38,0001.79
2023-04-11 08:11:00,,0834.4,4.99,0.00,27.5,25.7,00.0,35.9,29.0,09.7,0000.0,0010.97,0003.40,0001.80
2023-04-11 08:12:00,,0834.5,4.99,0.00,27.5,25.7,00.0,35.9,29.0,09.6,0000.0,0011.08,0003.38,0001.78
2023-04-11 08:13:00,,0834.5,4.99,0.00,27.5,25.7,00.0,35.9,29.1,09.7,0000.0,0011.23,0003.39,0001.78
2023-04-11 08:14:00,,0834.3,5.01,0.00,27.5,25.7,00.0,35.9,29.0,09.6,0000.0,0011.70,0003.43,0001.79
2023-04-11 08:15:00,,0834.5,5.00,0.00,27.5,25.7,00.0,35.9,29.0,09.6,0000.0,0011.63,0003.48,0001.81
2023-04-11 08:16:00,,0834.6,5.01,0.00,27.5,25.7,00.0,35.9,29.0,09.7,0000.0,0012.80,0003.53,0001.82
2023-04-11 08:17:00,,0834.2,5.01,0.00,27.5,25.7,00.0,35.9,29.0,09.8,0000.0,0013.10,0003.56,0001.81
2023-04-11 08:18:00,,0834.4,4.99,0.00,27.5,25.7,00.0,35.9,29.0,09.8,0000.0,0013.16,0003.61,0001.83
2023-04-11 08:19:00,,0834.2,4.99,0.00,27.5,25.7,00.0,35.9,29.0,09.9,0000.0,0013.67,0003.56,0001.84
2023-04-11 08:20:00,,0834.2,5.00,0.00,27.4,25.6,00.0,35.9,29.0,09.8,0000.0,0013.35,0003.56,0001.85
2023-04-11 08:21:00,,0834.2,5.00,0.00,27.4,25.6,00.0,35.9,28.9,09.8,0000.0,0012.41,0003.57,0001.86
2023-04-11 08:22:00,,0834.2,5.00,0.00,27.4,25.6,00.0,35.8,28.9,09.7,0000.0,0012.57,0003.57,0001.86
2023-04-11 08:23:00,,0834.2,5.01,0.00,27.4,25.6,00.0,35.8,29.0,09.7,0000.0,0012.12,0003.51,0001.87
2023-04-11 08:24:00,,0834.1,5.00,0.00,27.4,25.6,00.0,35.8,28.9,09.7,0000.0,0011.93,0003.49,0001.89
2023-04-11 08:25:00,,0834.1,5.00,0.00,27.4,25.6,00.0,35.8,28.9,09.8,0000.0,0011.29,0003.45,0001.87
2023-04-11 08:26:00,,0834.1,5.00,0.00,27.4,25.6,00.0,35.8,28.9,09.8,0000.0,0010.50,0003.42,0001.86
2023-04-11 08:27:00,,0834.1,5.00,0.00,27.4,25.6,00.0,35.8,28.9,09.8,0000.0,0009.45,0003.43,0001.87
2023-04-11 08:28:00,,0834.1,5.00,0.00,27.4,25.6,00.0,35.8,28.9,09.7,0000.0,0009.53,0003.41,0001.87
2023-04-11 08:29:00,,0834.0,5.00,0.00,27.4,25.6,00.0,35.8,28.9,09.6,0000.0,0009.60,0003.41,0001.85
2023-04-11 08:30:00,,0834.0,5.00,0.00,27.4,25.6,00.0,35.8,28.9,09.6,0000.0,0009.01,0003.43,0001.84
2023-04-11 08:31:00,,0834.0,5.00,0.00,27.4,25.5,00.0,35.8,28.9,09.6,0000.0,0008.94,0003.45,0001.83
2023-04-11 08:32:00,,0834.0,5.00,0.00,27.4,25.5,00.0,35.8,28.8,09.7,0000.0,0009.66,0003.48,0001.83
2023-04-11 08:33:00,,0834.0,5.00,0.00,27.4,25.5,00.0,35.8,28.9,09.7,0000.0,0009.76,0003.46,0001.82
2023-04-11 08:34:00,,0834.0,5.00,0.00,27.3,25.5,00.0,35.7,28.9,09.8,0000.0,0009.74,0003.46,0001.82
2023-04-11 08:35:00,,0834.0,5.01,0.00,27.3,25.5,00.0,35.7,28.9,09.9,0000.0,0009.73,0003.50,0001.81
2023-04-11 08:36:00,,0834.0,5.00,0.00,27.3,25.5,00.0,35.7,28.8,10.0,0000.0,0009.91,0003.55,0001.82
2023-04-11 08:37:00,,0834.0,5.00,0.00,27.3,25.5,00.0,35.7,28.8,10.0,0000.0,0010.04,0003.51,0001.82
2023-04-11 08:38:00,,0833.9,5.00,0.00,27.3,25.5,00.0,35.7,28.8,10.0,0000.0,0009.80,0003.46,0001.81
2023-04-11 08:39:00,,0834.0,5.00,0.00,27.3,25.5,00.0,35.7,28.8,10.0,0000.0,0010.04,0003.43,0001.80
2023-04-11 08:40:00,,0834.0,5.00,0.00,27.3,25.5,00.0,35.7,28.8,10.1,0000.0,0010.03,0003.42,0001.79
2023-04-11 08:41:00,,0833.9,5.00,0.00,27.3,25.5,00.0,35.7,28.8,10.1,0000.0,0009.95,0003.38,0001.78
2023-04-11 08:42:00,,0833.9,5.00,0.00,27.3,25.5,00.0,35.7,28.7,10.2,0000.0,0009.90,0003.37,0001.79
2023-04-11 08:43:00,,0833.9,5.00,0.00,27.3,25.5,00.0,35.7,28.7,10.2,0000.0,0009.09,0003.34,0001.78
2023-04-11 08:44:00,,0833.9,5.00,0.00,27.3,25.4,00.0,35.7,28.7,10.2,0000.0,0009.06,0003.33,0001.78
2023-04-11 08:45:00,,0833.9,5.00,0.00,27.2,25.4,00.0,35.7,28.8,10.2,0000.0,0009.34,0003.36,0001.77
2023-04-11 08:46:00,,0833.8,5.01,0.00,27.2,25.4,00.0,35.7,28.8,10.2,0000.0,0009.23,0003.34,0001.76
2023-04-11 08:47:00,,0833.8,5.01,0.00,27.2,25.4,00.0,35.6,28.7,10.3,0000.0,0009.05,0003.29,0001.76
2023-04-11 08:48:00,,0833.9,5.01,0.00,27.2,25.4,00.0,35.6,28.8,10.2,0000.0,0008.99,0003.31,0001.77
2023-04-11 08:49:00,,0833.8,5.01,0.00,27.2,25.4,00.0,35.6,28.7,10.3,0000.0,0009.28,0003.33,0001.75
2023-04-11 08:50:00,,0833.8,5.00,0.00,27.2,25.4,00.0,35.6,28.7,10.3,0000.0,0009.13,0003.35,0001.74
2023-04-11 08:51:00,,0833.8,4.99,0.00,27.2,25.4,00.0,35.6,28.7,10.3,0000.0,0009.09,0003.34,0001.74
2023-04-11 08:52:00,,0833.8,5.00,0.00,27.2,25.4,00.0,35.6,28.7,10.3,0000.0,0009.65,0003.34,0001.75
2023-04-11 08:53:00,,0833.8,5.01,0.00,27.2,25.4,00.0,35.6,28.7,10.4,0000.0,0010.45,0003.34,0001.72
2023-04-11 08:54:00,,0833.8,5.01,0.00,27.2,25.4,00.0,35.6,28.7,10.3,0000.0,0010.45,0003.35,0001.70
2023-04-11 08:55:00,,0833.7,5.00,0.00,27.2,25.4,00.0,35.6,28.7,10.3,0000.0,0010.26,0003.37,0001.70
2023-04-11 08:56:00,,0833.7,5.01,0.00,27.2,25.4,00.0,35.6,28.7,10.3,0000.0,0010.52,0003.36,0001.70
2023-04-11 08:57:00,,0833.8,5.00,0.00,27.2,25.4,00.0,35.6,28.7,10.3,0000.0,0010.53,0003.35,0001.69
2023-04-11 08:58:00,,0833.8,5.00,0.00,27.2,25.4,00.0,35.5,28.7,10.2,0000.0,0010.74,0003.36,0001.67
2023-04-11 08:59:00,,0833.7,5.00,0.00,27.2,25.3,00.0,35.5,28.7,10.3,0000.0,0010.78,0003.32,0001.66
